Location: Vidojevica
(43.1414°N, 21.5558°E)
Time: 12:37:53
(UTC+02:00)

Tiangong 2 - Visible Passes

Search period start: 21 June 2018 00:00
Search period end: 01 July 2018 00:00
Orbit: 291 x 297 km, 42.8° (Epoch: 21 June)

Date Brightness Start Highest point End Pass type
(mag) Time Alt. Az. Time Alt. Az. Time Alt. Az.
28 Jun 3.0 03:24:26 12° SSE 03:24:37 12° SSE 03:25:48 10° ESE visible
29 Jun 2.1 03:29:31 20° S 03:30:00 21° SSE 03:32:03 10° ESE visible
30 Jun 1.3 03:34:30 26° SSW 03:35:22 35° SSE 03:37:44 10° E visible
